Weather History for KY50 - September, 2012

Change the Weather History Date:

Sunday, September 9, 2012

  Actual Average (KPCZ) Record (KPCZ)
Temperature  
Mean Temperature 60 °F -  
Max Temperature 70 °F 75 °F 96 °F (1955)
Min Temperature 47 °F 52 °F 38 °F (1969)
Degree Days  
Heating Degree Days 5    
Growing Degree Days 10 (Base 50)    
Moisture  
Dew Point 49 °F    
Average Humidity 77    
Maximum Humidity 100    
Minimum Humidity 37    
Precipitation  
Precipitation 0.00 in - - ()
Sea Level Pressure  
Sea Level Pressure 30.07 in    
Wind  
Wind Speed 2 mph (NNW)    
Max Wind Speed 12 mph    
Max Gust Speed 21 mph    
Visibility 10 miles    
Events      
Averages and records for this station are not official NWS values.
T = Trace of Precipitation, MM = Missing Value Source: NWS Daily Summary

Daily Weather History Graph

Daily Weather History Graph

Search for Another Location

Airport or City:

Trip Planner

Search our weather history database for the weather conditions in past years. The results will help you decide how hot, cold, wet, or windy it might be!

Date:

Astronomy

Sep. 09, 2012 Rise Set
Actual Time 6:30 AM CDT 7:17 PM CDT
Civil Twilight 6:00 AM CDT 7:46 PM CDT
Nautical Twilight 5:26 AM CDT 8:21 PM CDT
Astronomical Twilight 4:49 AM CDT 8:57 PM CDT
Moon No Moon Rise 3:12 PM CDT (9/9)
Length of Visible Light 13h 46m
Length of Day
12h 47m
Last Quarter, 39% of the Moon is Illuminated
Sep 9
Last Quarter
Sep 15
New
Sep 22
First Quarter
Sep 29
Full
Oct 8
Last Quarter

Hourly Weather History & Observations

Time (CDT) Temp. Dew Point Humidity Pressure Visibility Wind Dir Wind Speed Gust Speed Precip Events Conditions
12:56 AM 52.9 °F 50.9 °F 93% 29.92 in 10.0 mi Calm Calm - N/A   Clear
1:56 AM 52.9 °F 52.0 °F 97% 29.94 in 10.0 mi Calm Calm - N/A   Clear
2:56 AM 52.0 °F 50.9 °F 96% 29.95 in 10.0 mi Calm Calm - N/A   Clear
3:56 AM 50.9 °F 50.0 °F 97% 29.97 in 10.0 mi Calm Calm - N/A   Clear
4:56 AM 50.9 °F 50.0 °F 97% 30.00 in 10.0 mi Calm Calm - N/A   Clear
5:56 AM 50.0 °F 48.9 °F 96% 30.03 in 10.0 mi Calm Calm - N/A   Clear
6:56 AM 50.9 °F 50.0 °F 97% 30.06 in 10.0 mi Calm Calm - N/A   Clear
7:05 AM 51.8 °F 50.0 °F 94% 30.06 in 9.0 mi Calm Calm - N/A   Scattered Clouds
7:15 AM 51.8 °F 51.8 °F 100% 30.07 in 9.0 mi Calm Calm - N/A   Mostly Cloudy
7:56 AM 52.9 °F 52.0 °F 97% 30.08 in 10.0 mi NNW 3.5 mph - N/A   Mostly Cloudy
8:06 AM 53.6 °F 51.8 °F 94% 30.09 in 10.0 mi Calm Calm - N/A   Mostly Cloudy
8:39 AM 55.4 °F 51.8 °F 88% 30.10 in 10.0 mi North 8.1 mph - N/A   Scattered Clouds
9:56 AM 59.9 °F 52.9 °F 78% 30.11 in 10.0 mi NNW 6.9 mph - N/A   Clear
10:56 AM 63.9 °F 52.0 °F 65% 30.12 in 10.0 mi North 8.1 mph - N/A   Scattered Clouds
11:56 AM 65.8 °F 47.8 °F 52% 30.12 in 10.0 mi North 10.4 mph 20.7 mph N/A   Partly Cloudy
12:56 PM 66.9 °F 46.9 °F 49% 30.12 in 10.0 mi North 8.1 mph 18.4 mph N/A   Scattered Clouds
1:56 PM 66.9 °F 45.9 °F 47% 30.11 in 10.0 mi NW 4.6 mph - N/A   Scattered Clouds
2:56 PM 70.0 °F 43.9 °F 39% 30.10 in 10.0 mi NW 11.5 mph 16.1 mph N/A   Partly Cloudy
3:56 PM 70.9 °F 43.0 °F 37% 30.10 in 10.0 mi WNW 10.4 mph 17.3 mph N/A   Mostly Cloudy
4:56 PM 70.0 °F 45.9 °F 42% 30.11 in 10.0 mi NW 8.1 mph - N/A   Partly Cloudy
5:56 PM 68.9 °F 45.9 °F 44% 30.11 in 10.0 mi Calm Calm - N/A   Clear
6:56 PM 66.9 °F 45.9 °F 47% 30.11 in 10.0 mi Calm Calm - N/A   Clear
7:56 PM 57.9 °F 50.9 °F 77% 30.12 in 10.0 mi Calm Calm - N/A   Clear
8:56 PM 54.0 °F 48.9 °F 83% 30.14 in 10.0 mi Calm Calm - N/A   Clear
9:56 PM 50.9 °F 48.9 °F 93% 30.14 in 10.0 mi Calm Calm - N/A   Clear
11:56 PM 47.8 °F 46.9 °F 97% 30.14 in 10.0 mi Calm Calm - N/A   Clear